Regional Weather Roundup
Issued by NWS Sterling, VA

Home | Current Version | Previous Version | Text Only | Print | Product List | Glossary Off
Versions: 1 2 3 4 5 6 7 8 9 10 11 12 13 14 15 16 17 18 19 20 21 22 23 24 25 26 27

000
ASUS41 KLWX 230911
RWRLWX

REGIONAL WEATHER ROUNDUP
NATIONAL WEATHER SERVICE BALTIMORE MD/WASHINGTON DC
500 AM EDT WED AUG 23 2017

Note: "FAIR" indicates few or no clouds below 12,000 feet
with no significant weather and/or obstructions to visibility.
 TC=TEMPERATURE CELSIUS

 * =Non NWS site. Station does not report precipitation (e.g. rain,
    snow, etc.), thunder, or fog.

DCZ001-MDZ009-015-VAZ040>042-051-053>054-231000-
WASHINGTON METRO

CITY           SKY/WX    TMP DP  RH WIND       PRES   REMARKS
WASHINGTON NAT CLOUDY    79  69  71 NW3       29.81S
DULLES         CLOUDY    75  69  81 NW9       29.82S
ANDREWS AFB    MOCLDY    78  67  69 W7        29.81S
FT BELVOIR     MOCLDY    73  69  88 CALM      29.81S
QUANTICO       CLOUDY    76  75  97 NW7       29.82R
COLLEGE PARK*  MOCLDY    76  68  74 CALM      29.81S
LEESBURG*      LGT RAIN  73  72  94 NW8       29.83F
MANASSAS*      CLOUDY    76  70  82 CALM      29.83S
GAITHERSBURG*  CLOUDY    71  69  93 NW3       29.84R

$$

MDZ006>007-011-014-231000-
BALTIMORE METRO

CITY           SKY/WX    TMP DP  RH WIND       PRES   REMARKS
BWI AIRPORT    CLOUDY    75  70  84 W9        29.80S
MD SCIENCE CTR   N/A     77  71  82 MISG      29.80S
MARTIN STATE   CLOUDY    75  73  94 W3        29.81S
ANNAPOLIS      MOCLDY    80  72  76 NW5       29.79S
FORT MEADE*    CLOUDY    72  68  88 W5        29.83S

$$

MDZ012-015-019>023-231000-
MARYLAND EASTERN SHORE

CITY           SKY/WX    TMP DP  RH WIND       PRES   REMARKS
OCEAN CITY     CLEAR     78  76  93 W10       29.80F
SALISBURY      PTCLDY    77  77 100 W5        29.80S
BAY BRIDGE AP* CLOUDY    79  70  73 W7        29.81R
CAMBRIDGE*     PTCLDY    77  75  94 CALM      29.80S
EASTON*        MOCLDY    78  74  86 W3        29.84S

$$

MDZ017>025-231000-
SOUTHERN MARYLAND

CITY           SKY/WX    TMP DP  RH WIND       PRES   REMARKS
PATUXENT RIVER PTCLDY    76  75  97 CALM      29.80S
ST INIGOES     PTCLDY    79  75  87 W6        29.80S
LEONARDTOWN*   PTCLDY    73  72  94 CALM      29.83S

$$

MDZ003>005-231000-
NORTH CENTRAL MARYLAND

CITY           SKY/WX    TMP DP  RH WIND       PRES   REMARKS
FREDERICK*     CLOUDY    75  72  88 CALM      29.85R
HAGERSTOWN APT MOCLDY    72  69  90 W7        29.84R
WESTMINSTER*   CLOUDY    73  72  94 W5        29.84R

$$

MDZ501>502-231000-
WESTERN MARYLAND

CITY           SKY/WX    TMP DP  RH WIND       PRES   REMARKS
OAKLAND*       CLOUDY    61  61 100 NW7       29.94R
CUMBERLAND*    MOCLDY    70  70 100 CALM      29.91R

$$

VAZ025>031-231000-
SHENANDOAH VALLEY

CITY           SKY/WX    TMP DP  RH WIND       PRES   REMARKS
WINCHESTER*    PTCLDY    72  64  78 W9        29.85R
FRONT ROYAL*   CLOUDY    70  70 100 CALM      29.85R
LURAY*         CLOUDY    72  70  94 CALM      29.86S
NEW MARKET*    MOCLDY    69  68  96 N3        29.86R
STAUNTON*      CLOUDY    72  65  78 CALM      29.90R
WAYNESBORO*    CLOUDY    74  67  79 SW3       29.89S

$$

WVZ021-048>050-054>055-231000-
EASTERN WEST VIRGINIA PANHANDLE

CITY           SKY/WX    TMP DP  RH WIND       PRES   REMARKS
MARTINSBURG    MOCLDY    72  67  84 W6        29.83R
PETERSBURG*    MOCLDY    71  70  98 CALM      29.88S

$$

VAZ036>039-050-231000-
CENTRAL FOOTHILLS

CITY           SKY/WX    TMP DP  RH WIND       PRES   REMARKS
CHARLOTTESVILL CLOUDY    77  68  73 CALM      29.84R
CULPEPER*      CLOUDY    73  71  95 CALM      29.85R
ORANGE*        CLOUDY    70  68  94 CALM      29.83S
GORDONSVILLE*  CLOUDY    74  71  89 CALM      29.83R
WARRENTON*     CLOUDY    73  68  84 CALM      29.83R

$$

VAZ055>057-231000-
NORTH AND CENTRAL PIEDMONT

CITY           SKY/WX    TMP DP  RH WIND       PRES   REMARKS
FREDERICKSBRG* MOCLDY    75  75 100 CALM      29.81R
STAFFORD*      CLOUDY    71  71 100 NW5       29.86R

$$

NCZ024-NYZ072-PAZ021-071-VAZ022-071-231000-
OTHER REGIONAL OBSERVATIONS

CITY           SKY/WX    TMP DP  RH WIND       PRES   REMARKS
NEW YORK CITY  CLOUDY    73  72  96 SW6       29.79R
PHILADELPHIA   CLOUDY    76  72  87 SW6       29.79R
PITTSBURGH     CLOUDY    65  64  97 NW6       29.92R
ROANOKE        CLOUDY    75  67  76 W5        29.91S
RICHMOND       CLEAR     76  72  87 SW8       29.83S
RALEIGH        PTCLDY    76  73  91 SW8       29.89F

$$

ANZ530>537-231000-
MARINE OBSERVATIONS

STATION/POSITION TIME  TEMP    WIND        PRES
                       AIR SEA DIR/SP/G
                 (UTC) (F)     (DEG/KT/KT) (MB)
THOMAS PT LIGHT  0900   79 81  260/  5/  6   N/A
BALT KEY BRIDGE  0836   77     270/  8/ 10 1008.9R
COVE POINT       0836   80     280/  6/  7 1010.0R
LEWISETTA        0836   80 82  250/ 11/ 14 1009.0S
SOLOMONS ISLAND  0836   79 81  280/  2/  4   N/A
PINEY POINT      0836          310/  9/ 10   N/A

$$





USA.gov is the U.S. government's official web portal to all federal, state and local government web resources and services.